This is the latest recevied weather packets stored in our database for station/object K0QJ. If no packets are shown the sender has not sent any weather packets the latest 10 day(s).
| Time | Temp. | Humidity | Pressure | Rain* | Wind** | Luminosity | Snow |
|---|---|---|---|---|---|---|---|
| 1777731549 | 10° C | 60% | 1020.9 hPa | 0 mm | - | 144 W/m² | - |
| 1777731247 | 10° C | 61% | 1020.8 hPa | 0 mm | - | 60 W/m² | - |
| 1777730944 | 10° C | 60% | 1020.9 hPa | 0 mm | - | 51 W/m² | - |
| 1777730643 | 9.44° C | 61% | 1020.8 hPa | 0 mm | - | 49 W/m² | - |
| 1777730338 | 9.44° C | 61% | 1020.9 hPa | 0 mm | - | 49 W/m² | - |
| 1777730034 | 9.44° C | 62% | 1020.9 hPa | 0 mm | - | 52 W/m² | - |
| 1777729730 | 9.44° C | 63% | 1020.9 hPa | 0 mm | - | 53 W/m² | - |
| 1777729428 | 8.89° C | 63% | 1020.8 hPa | 0 mm | - | 43 W/m² | - |
| 1777729124 | 8.89° C | 64% | 1020.6 hPa | 0 mm | - | 54 W/m² | - |
| 1777728821 | 8.33° C | 65% | 1020.6 hPa | 0 mm | - | 42 W/m² | - |
| 1777728518 | 8.33° C | 65% | 1020.6 hPa | 0 mm | - | 41 W/m² | - |
| 1777728215 | 7.78° C | 66% | 1020.5 hPa | 0 mm | - | 38 W/m² | - |
| 1777727912 | 7.78° C | 66% | 1020.7 hPa | 0 mm | - | 43 W/m² | - |
| 1777727609 | 7.78° C | 66% | 1020.5 hPa | 0 mm | - | 35 W/m² | - |
| 1777727306 | 7.78° C | 66% | 1020.6 hPa | 0 mm | - | 34 W/m² | - |
| 1777727004 | 7.22° C | 67% | 1020.4 hPa | 0 mm | - | 32 W/m² | - |
| 1777726701 | 7.22° C | 66% | 1020.5 hPa | 0 mm | - | 31 W/m² | - |
| 1777726398 | 6.67° C | 66% | 1020.5 hPa | 0 mm | - | 30 W/m² | - |
| 1777726095 | 6.67° C | 68% | 1020.3 hPa | 0 mm | - | 29 W/m² | - |
| 1777725791 | 6.67° C | 68% | 1020.3 hPa | 0 mm | - | 28 W/m² | - |
| 1777725489 | 6.11° C | 66% | 1020.1 hPa | 0 mm | - | 27 W/m² | - |
| 1777725186 | 6.11° C | 68% | 1020.2 hPa | 0 mm | - | 24 W/m² | - |
| 1777724883 | 6.11° C | 68% | 1020.3 hPa | 0 mm | - | 24 W/m² | - |
| 1777724579 | 6.11° C | 68% | 1020 hPa | 0 mm | - | 23 W/m² | - |
| 1777724277 | 5.56° C | 68% | 1020.3 hPa | 0 mm | - | 21 W/m² | - |
* Rain latest hour (hover to see other rain measurements)
** Current wind speed in m/s (hover to see current wind gust speed)